Showing default

ICEYE-X71, 68494

Orbit data source: Space-Track

ICEYE-X71, 68494 is a payload satellite owned by ICEYE (FI) in SSO that was launched on Mon, 30 Mar 2026 UTC via an FALCON 9 launch vehicle from the Air Force Western Test Range (AFWTR). Payload-class satellites include a variety of spacecraft equipped with specific instruments for various scientific and technological missions. These include communications satellites like Starlink; space stations such as the ISS; scientific satellites like the Hubble; Earth observation satellites from companies like Planet Labs, Umbra, and HawkEye 360; GPS; miniature CubeSats for education and research; and military/defense satellites.

Loading next visibility...
Identifier
68494, 2026-067CG
Orbit
SSO
Country
Flag of FIFI / FIN
Related business
Manufacturer
ICEYE
Mission
Operational Commercial Radar Imaging
Bus & Motor
ICEYE, Unknown motor
Mass
120 kg wet, 120 kg dry
Launch date (UTC)
2026-03-30 (6 months ago)
Launch vehicle
FALCON 9
Launch site
Air Force Western Test Range (AFWTR)
Object type
Payload
Rocket body
Debris
Shape & HBR
Box + 1 Pan, 2.4 m
Radar Cross Section
0.776 m², Medium (>0.1 m² and < 1m²)

Expand to show TLE details & history
Last TLE update: 20 hours ago

TLE from 20 hours ago
0 ICEYE-X71
1 68494U 26067CG  26263.45688879  .00006405  00000-0  52733-3 0  9994
2 68494  97.7735 220.5576 0002853  74.1855 285.9683 14.99434745 25958
Epoch: 2026-09-20T10:57Z
TLE epoch observation values (Epoch: 2026-09-20T10:57:55.191Z)
Latitude
0.00005°
Longitude
56.72683°
Altitude
571.149 km
Speed
7.576 km/s
True Right ascension
14h 42m 13s
True Declination
0° 00' 00"
Sunlit
Object was in daylight at epoch
Visualization orbit readout
Latitude
Unknown
Longitude
Unknown
Altitude
Unknown
Speed
Unknown
Apparent Right ascension
Unknown
Apparent Declination
Unknown
Sunlit
N/A
Visualization observer readout
Local Sidereal Time
00:08:53
Azimuth
Unknown
Elevation
Unknown
Doppler factor
Unknown
Orbital elements
Apogee altitude
567.632 km
Perigee altitude
563.67 km
Semi-major axis
6,943.788 km
Eccentricity
0.00029
Inclination
97.7735°
RAAN
220.5576°
Arg. of periapsis
74.1855°
True anomaly
285.93687°
Mean anomaly
285.9683°
Eccentric anomaly
285.95258°
Mean motion
3.75101 °/min
Orbital period
95.97 mins
BSTAR
0.00052733
Loading maneuver chart data...
Computing Atmospheric mass density...
Loading historical data...
Loading historical data...
Loading historical data...
Loading historical data...
Loading historical data...
Loading historical data...
Loading historical data...

Documentation

Showing up to 5 results
|